カタログに戻る

ONEWEB-0049

運用中通信PO
NORAD 45154·PAYLOAD·🇬🇧 United Kingdom

打ち上げ Feb 6, 2020 から Baikonur Cosmodrome

Loading…

次のパス (今後24時間)

TLE

最新Source: CelesTrak SupGP

元期: Sep 14, 2026, 19:32 UTC

1 45154C 20008Z   26257.81442544  .00002661  00000+0  76309-2 0  2571
2 45154  87.8903  18.4283 0001761 115.1647 355.6125 13.10371937    15

AllMySatでONEWEB-0049をリアルタイム追跡

Download on the App Store